Location: ?ern� Novina
(50.6762°N, 14.8696°E)
Time: 21:12:00
(UTC+00:00)

Daily predictions for brighter satellites

Satellite Brightness Start Highest point End
(mag) Time Altitude Azimuth Time Altitude Azimuth Time Altitude Azimuth
Okean O Rocket 3.3 17:10:29 10° SSW 17:14:34 40° W 17:18:41 10° NNW
Cosmos 1980 Rocket 2.8 17:12:30 10° SW 17:18:07 62° NW 17:23:49 10° NNE
Cosmos 1500 4.5 17:15:43 10° SE 17:18:26 19° E 17:21:10 10° NE
SL-08 RB Rocket 4.4 17:16:22 10° SE 17:20:27 34° ENE 17:24:35 10° N
CZ-2D R/B 3.8 17:16:57 10° S 17:20:43 65° WSW 17:24:32 10° NNW
Cosmos 1689 Rocket 3.1 17:21:53 10° NE 17:24:20 24° E 17:26:46 10° SSE
SJ-11-01 4.3 17:20:25 10° SSE 17:25:02 64° ENE 17:29:43 10° N
ERBS 2.2 17:22:26 10° SW 17:25:45 80° SSE 17:29:04 10° ENE
Cosmos 1867 4.2 17:21:52 10° WSW 17:27:14 58° NW 17:32:40 10° NE
Cosmos 1862 Rocket 3.6 17:23:04 10° N 17:27:34 64° ENE 17:32:00 10° SSE
Cosmos 1666 Rocket 3.5 17:23:23 10° S 17:27:41 71° E 17:32:00 10° NNE
BREEZE-M DEB (TANK) 4.1 17:24:29 10° SSW 17:28:25 18° SSE 17:30:42 10° ESE
CZ-2C R/B 3.9 17:23:50 10° S 17:29:29 63° WSW 17:34:57 10° NNW
Aureole 2 Rocket 1.8 17:29:30 10° NNW 17:32:01 48° ENE 17:34:27 10° SE
Cosmos 2322 Rocket 2.4 17:26:47 10° S 17:32:08 49° ESE 17:37:33 10° NE
Cosmos 2242 Rocket 4.3 17:28:57 10° N 17:33:04 33° ENE 17:37:06 10° SE
Nadezhda 3 Rocket 4.0 17:28:23 10° N 17:34:44 68° ENE 17:41:05 10° SSE
Sich 1 3.7 17:30:55 10° SSW 17:35:16 63° WNW 17:39:42 10° N
Resurs 01 Rocket 3.7 17:35:47 10° ENE 17:36:25 10° NE 17:37:02 10° NE
Cosmos 1461 3.3 17:32:38 10° SW 17:37:23 87° NW 17:42:09 10° NE
ATLAS 5 CENTAUR R/B 3.5 17:24:09 10° WSW 17:38:02 67° NW 17:41:49 10° NE
Meteor 1-25 Rocket 4.2 17:33:28 10° S 17:39:13 79° E 17:44:55 10° NNE
COSMOS 2428 4.3 17:40:48 10° ESE 17:42:30 12° E 17:42:30 12° E
Cosmos 2074 Rocket 4.1 17:37:02 10° S 17:43:19 89° W 17:49:37 10° N
Cosmos 2154 Rocket 4.0 17:37:26 10° S 17:43:34 64° E 17:49:41 10° NNE
YAOGAN 1 2.7 17:40:06 10° SSE 17:44:25 81° WSW 17:48:47 10° NNW
Abrixas rocket 2.1 17:42:03 10° WSW 17:44:27 43° S 17:45:57 19° ESE
Helios 1A Rocket 2.9 17:40:35 10° SSE 17:44:34 64° ENE 17:48:36 10° N
FALCON 9 DEB 3.4 17:43:04 10° W 17:46:13 53° N 17:48:33 16° ENE
Meteor 1-14 Rocket 4.4 17:41:41 10° SSE 17:47:00 48° E 17:52:18 10° NNE
Cosmos 1610 Rocket 4.5 17:41:07 10° S 17:47:15 67° E 17:53:30 10° NNE
COSMO-SKYMED 1 3.4 17:44:24 10° N 17:48:39 54° WNW 17:52:53 10° SSW
Cosmos 2219 Rocket 3.5 17:46:38 10° SE 17:50:01 16° E 17:53:23 10° ENE
SJ-6B 3.9 17:46:53 11° ESE 17:50:09 27° ENE 17:53:35 10° N
GP-B 3.4 17:47:47 10° SSE 17:51:59 43° E 17:56:12 10° N
MetOp-A 4.5 17:48:30 10° SE 17:53:33 44° ENE 17:58:37 10° N
Cosmos 2263 Rocket 4.2 17:49:34 10° NW 17:54:22 30° WSW 17:59:10 10° SSW
Meteor 1-18 Rocket 4.4 17:49:03 10° NNW 17:55:02 86° WSW 18:00:57 10° S
Cosmos 968 Rocket 4.4 17:50:16 10° NNW 17:55:23 53° WSW 18:00:29 10° S
Cosmos 1992 Rocket 4.0 17:50:50 10° S 17:55:59 63° ESE 18:01:10 10° NNE
SL-16 R/B 2.2 17:50:57 10° SSW 17:56:38 87° ESE 18:02:21 10° NNE
ARGOS 3.2 17:52:06 10° SSE 17:57:32 86° WSW 18:03:01 10° NNW
USA 234 4.0 17:52:33 11° ENE 17:57:57 32° SE 18:03:40 10° SSW
FALCON 9 DEB 3.3 17:55:36 10° WNW 17:58:44 53° N 18:00:32 22° ENE
Cosmos 1515 4.3 17:55:32 10° NNW 17:59:20 61° W 18:03:05 10° S
Okean 1 3.8 17:55:25 10° NNW 17:59:25 65° W 18:03:25 10° S
SeaSat 1 2.6 17:56:36 10° NE 18:01:24 48° ESE 18:06:10 10° S
SJ 16-02 2.9 17:58:18 10° N 18:01:27 19° NE 18:02:34 17° ENE
Okean 1-7 3.2 17:58:42 10° N 18:02:59 51° ENE 18:07:13 10° SSE
Cosmos 1633 Rocket 3.6 17:59:25 10° SSW 18:03:47 62° WNW 18:08:12 10° N
OBJECT-B 1.9 18:03:22 24° E 18:03:51 25° ENE 18:06:33 10° N
Cosmos 2184 Rocket 4.4 17:57:50 10° SSW 18:03:58 68° WNW 18:10:12 10° N
CZ-2C R/B 2.7 18:01:22 10° NNE 18:06:51 62° E 18:12:10 10° S
CZ-4 R/B 3.0 18:05:23 10° SSW 18:08:59 37° W 18:12:39 10° NNW
H-2A R/B 3.1 18:03:43 10° S 18:09:01 52° W 18:14:20 10° NNW
Cosmos 2322 4.5 18:04:35 10° SSE 18:09:26 29° ESE 18:14:18 10° NE
SAR-Lupe-4 3.5 18:05:53 10° NNE 18:09:29 88° E 18:13:04 10° SSW
USA 305 3.4 18:08:05 10° W 18:12:18 54° N 18:14:50 22° ENE
DMSP B5D2-2 4.3 18:08:10 10° NNE 18:13:13 47° E 18:18:14 10° S
Gbstr 26 Del rocket 3.3 18:10:31 10° W 18:15:01 79° N 18:18:26 23° E
SL-8 Rocket 4.2 18:09:37 10° SSE 18:15:32 47° E 18:21:26 10° NNE
Cosmos 2237 4.2 18:10:15 10° SSW 18:15:56 70° ESE 18:21:40 10° NNE
SL-4 R/B 1.5 18:13:46 10° WNW 18:17:20 87° SSW 18:18:38 35° ESE
Cosmos 962 Rocket 4.4 18:11:24 10° S 18:17:33 69° E 18:23:49 10° NNE
Cosmos 1869 Rocket 4.1 18:16:33 10° SSE 18:20:31 36° E 18:24:33 10° NNE
USA 307 3.4 18:19:24 10° W 18:23:37 54° N 18:25:41 27° ENE
USA 186 1.3 18:25:07 56° NNE 18:25:07 56° NNE 18:27:14 10° N
FALCON 9 DEB 3.9 18:21:31 10° WNW 18:24:48 44° SSW 18:26:13 27° SSE
ATLAS CENTAUR R/B 1.0 18:22:02 10° SSW 18:25:35 58° SE 18:26:57 33° ENE
Cosmos 1339 Rocket 4.4 18:19:30 10° N 18:25:42 71° ENE 18:31:58 10° SSE
Cosmos 1354 Rocket 4.4 18:20:42 10° NNW 18:25:55 65° WSW 18:31:05 10° S
ERS-2 2.8 18:23:08 10° N 18:26:44 56° WNW 18:30:18 10° SSW
USA 306 3.3 18:22:49 10° WNW 18:27:01 53° N 18:28:56 29° ENE
Okean-O 4.5 18:24:52 10° SSW 18:28:52 33° W 18:32:54 10° NNW
FALCON 9 DEB 3.1 18:26:07 10° WNW 18:29:15 58° N 18:29:48 48° NE
Cosmos 1378 3.8 18:26:01 10° N 18:29:16 34° ENE 18:29:16 34° ENE
Cosmos 1844 Rocket 3.0 18:24:14 10° NNW 18:29:47 67° WSW 18:35:17 10° SSE
CSL-04 Rocket 4.3 18:24:36 10° S 18:30:05 60° WSW 18:35:33 10° NNW
Cosmos 2366 rocket 4.2 18:24:29 10° SSE 18:30:31 50° E 18:36:38 10° NNE
FALCON 9 DEB 3.2 18:28:03 10° WNW 18:31:13 57° N 18:31:45 48° NE
USA 308 3.3 18:30:02 10° WNW 18:34:14 54° N 18:35:51 33° ENE
Cosmos 1777 Rocket 3.9 18:29:23 10° NNW 18:34:41 76° ENE 18:37:59 23° SSE
Cosmos 1666 2.5 18:31:12 10° S 18:34:52 66° E 18:38:36 10° NNE
Cosmos 2341 Rocket 3.9 18:32:37 10° S 18:38:56 85° E 18:45:15 10° N
SPOT 3 Rocket 4.1 18:37:59 33° E 18:39:07 38° ENE 18:43:55 10° N
Meteor 1-5 Rocket 4.0 18:33:54 10° S 18:39:16 82° E 18:44:51 10° NNE
Cosmos 2333 4.3 18:34:23 10° S 18:39:51 52° ESE 18:45:23 10° NE
Okean 3 3.4 18:37:20 10° N 18:41:34 63° ENE 18:42:57 40° SE
Cosmos 1844 4.1 18:35:51 10° NW 18:41:36 66° WSW 18:46:58 11° SSE
Ariane Rocket 2.9 18:42:04 22° SSE 18:45:23 74° ENE 18:50:29 10° NNW
Cosmos 2221 Rocket 4.0 18:41:38 10° N 18:45:39 40° ENE 18:45:39 40° ENE
Cosmos 2360 Rocket 2.2 18:40:21 10° SSW 18:46:01 86° WNW 18:51:44 10° NNE
Cosmos 2278 Rocket 2.7 18:41:52 10° NNW 18:47:17 42° NE 18:48:36 37° E
Cosmos 1727 Rocket 4.0 18:43:34 10° N 18:49:42 60° ENE 18:52:57 28° SE
Meteor 2-20 4.5 18:45:37 10° N 18:51:38 56° ENE 18:54:04 35° SE
Cosmos 1703 Rocket 4.4 18:49:02 10° NNW 18:53:19 50° W 18:57:31 10° S
Cosmos 2333 Rocket 2.2 18:50:35 10° S 18:56:07 56° ESE 19:01:43 10° NE
Cosmos 2218 Rocket 3.9 18:51:08 10° S 18:57:31 78° E 19:03:56 10° NNE
ERBS 3.7 18:59:09 10° W 19:02:10 31° NNW 19:02:19 31° N
Cosmos 1943 Rocket 3.9 19:02:22 10° N 19:06:17 19° NNE 19:06:52 18° NE
MetOp-B 4.4 19:08:50 47° ENE 19:08:50 47° ENE 19:13:57 10° N
Resurs 01 Rocket 1.9 19:12:41 54° NNE 19:12:41 54° NNE 19:16:24 10° N
Cosmos 864 Rocket 4.4 19:08:09 10° S 19:14:19 87° W 19:20:35 10° N
Cosmos 2322 Rocket 3.6 19:11:12 10° WSW 19:16:22 37° NW 19:21:35 10° NNE
SME Rocket 4.3 19:08:07 10° NNE 19:16:58 87° WNW 19:22:34 10° SSW
Lacrosse 4 Rocket 3.7 19:13:38 10° SSW 19:14:29 15° SSW 19:14:29 15° SSW
Cosmos 192 4.3 19:18:23 10° SSW 19:23:17 79° WNW 19:28:15 10° NNE
SJ-6B 4.4 19:22:30 20° SSW 19:24:41 35° W 19:28:26 10° NNW
COSMOS 2428 2.9 19:20:31 10° SSW 19:32:12 - NNE 19:24:51 51° S
ASTEX 1 3.7 19:21:28 10° N 19:26:19 64° W 19:30:11 16° SSW
Cosmos 1937 Rocket 4.5 19:22:44 10° NNW 19:26:30 33° NNE 19:26:30 33° NNE
Meteor 1-23 Rocket 4.2 19:23:23 10° NNW 19:28:59 78° W 19:30:27 51° S
Meteor 1-11 Rocket 4.0 19:27:24 10° SSW 19:33:05 67° WNW 19:38:41 10° N
Cosmos 2219 Rocket 2.0 19:27:32 10° SSW 19:33:08 88° ESE 19:38:48 10° NNE
OBJECT-B 3.2 19:36:26 23° W 19:36:26 23° W 19:38:43 10° NW
SeaSat 1 3.9 19:34:20 10° NNE 19:38:48 35° NW 19:43:16 10° WSW
Resurs 1-3 4.4 19:38:47 46° WSW 19:39:05 47° W 19:43:22 10° NNW
Terra 3.9 19:42:57 17° NNE 19:42:57 17° NNE 19:44:20 10° N
SJ 16-02 2.0 19:36:07 10° NNW 19:39:35 52° NW 19:39:35 52° NW
SL-16 R/B 4.3 19:36:55 10° W 19:41:29 24° NW 19:46:05 10° NNE
USA 234 3.1 19:39:54 55° ENE 19:41:32 85° SSE 19:48:05 10° WSW
USA 281 4.2 19:47:39 31° NE 19:47:39 31° NE 19:53:08 10° NNW
Meteor 2-20 Rocket 4.4 19:42:21 10° NNW 19:48:29 81° W 19:49:08 71° SSW
Cosmos 2369 Rocket 3.9 19:47:17 10° NNW 19:50:42 20° NNE 19:50:42 20° NNE
BREEZE-M DEB (TANK) 3.8 19:49:23 10° W 19:51:09 37° WSW 19:51:09 37° WSW
USA 305 4.4 19:48:19 10° WNW 19:50:56 36° WNW 19:50:56 36° WNW
Cosmos 2322 4.2 19:47:39 10° SW 19:53:18 58° NW 19:58:58 10° NNE
Cosmos 1898 Rocket 4.2 19:54:03 10° NNW 19:57:51 49° NNW 19:57:51 49° NNW
Spot 2 Rocket 4.5 20:01:35 40° N 20:01:35 40° N 20:04:52 10° NNW
ERS-1 Rocket 4.5 20:04:10 28° N 20:04:10 28° N 20:06:40 10° N
Gbstr 26 Del rocket 4.1 19:57:10 10° WNW 20:00:59 56° W 20:00:59 56° W
ATLAS CENTAUR R/B 3.8 20:01:43 10° W 20:03:10 18° WNW 20:03:10 18° WNW
Cosmos 2360 Rocket 4.4 20:26:26 10° W 20:30:52 23° NW 20:35:18 10° NNE
Cosmos 2278 Rocket 3.3 20:26:05 10° NW 20:30:28 38° W 20:30:28 38° W
Cosmos 2333 Rocket 3.7 20:35:32 10° WSW 20:40:41 34° NW 20:45:54 10° NNE
Resurs 01 Rocket 4.3 20:50:14 16° WNW 20:50:14 16° WNW 20:51:55 10° NW
Cosmos 1943 Rocket 3.8 20:45:32 10° NNW 20:48:24 30° NNW 20:48:24 30° NNW
Cosmos 2219 Rocket 4.2 21:13:23 10° W 21:17:51 24° NW 21:22:21 10° NNE
USA 281 4.5 21:34:30 36° NW 21:34:30 36° NW 21:38:09 10° NNW
Cosmos 2369 Rocket 4.4 21:30:48 10° NNW 21:32:29 20° NNW 21:32:29 20° NNW
